Sacramento, CA

9:13 AM PST on December 10, 2016 (GMT -0800)
Sacramento Executive

Weather History for KSAC - December, 2012

Change the Weather History Date:

Sunday, December 16, 2012

  Actual Average Record
Temperature  
Mean Temperature 46 °F -  
Max Temperature 53 °F 53 °F 68 °F (1958)
Min Temperature 38 °F 38 °F 25 °F (1967)
Degree Days  
Heating Degree Days 19    
Cooling Degree Days 0    
Moisture  
Dew Point 39 °F    
Average Humidity 76    
Maximum Humidity 92    
Minimum Humidity 59    
Precipitation  
Precipitation 0.00 in 0.10 in 0.99 in (2014)
Month to date precipitation 2.66 1.55  
Year to date precipitation 17.66 16.82  
Since 1 July precipitation 7.80  
Sea Level Pressure  
Sea Level Pressure 30.08 in    
Wind  
Wind Speed 4 mph (SE)    
Max Wind Speed 13 mph    
Max Gust Speed 17 mph    
Visibility 7 miles    
Events Rain    
T = Trace of Precipitation, MM = Missing Value Source: NWS Daily Summary

Daily Weather History Graph

Daily Weather History Graph

Search for Another Location

Airport or City:

Trip Planner

Search our weather history database for the weather conditions in past years. The results will help you decide how hot, cold, wet, or windy it might be!

Date:

Astronomy

Dec. 16, 2012 Rise Set
Actual Time 7:17 AM PST 4:46 PM PST
Civil Twilight 6:47 AM PST 5:16 PM PST
Nautical Twilight 6:14 AM PST 5:49 PM PST
Astronomical Twilight 5:41 AM PST 6:21 PM PST
Moon 9:56 AM PST (12/16) 9:04 PM PST (12/16)
Length of Visible Light 10h 28m
Length of Day
9h 29m
Waxing Crescent, 17% of the Moon is Illuminated
Dec 16
Waxing Crescent
Dec 19
First Quarter
Dec 28
Full
Jan 4
Last Quarter
Jan 11
New

Hourly Weather History & Observations

Time (PST) Temp. Windchill Dew Point Humidity Pressure Visibility Wind Dir Wind Speed Gust Speed Precip Events Conditions
12:53 AM 44.1 °F 41.5 °F 39.0 °F 82% 30.09 in 10.0 mi East 4.6 mph - N/A   Overcast
1:53 AM 45.0 °F 42.6 °F 39.0 °F 80% 30.09 in 9.0 mi East 4.6 mph - N/A   Overcast
2:53 AM 45.0 °F 43.5 °F 37.9 °F 76% 30.10 in 10.0 mi SE 3.5 mph - N/A   Overcast
3:53 AM 44.1 °F - 37.9 °F 79% 30.09 in 10.0 mi Calm Calm - N/A   Overcast
4:53 AM 41.0 °F - 37.0 °F 86% 30.09 in 7.0 mi Calm Calm - N/A   Overcast
5:53 AM 39.9 °F 37.8 °F 37.9 °F 93% 30.10 in 4.0 mi NW 3.5 mph - N/A   Mostly Cloudy
6:50 AM 39.2 °F - 37.4 °F 93% 30.11 in 1.8 mi Calm Calm - N/A   Mostly Cloudy
6:53 AM 39.0 °F - 37.0 °F 93% 30.11 in 4.0 mi Calm Calm - N/A   Mostly Cloudy
7:09 AM 39.2 °F - 37.4 °F 93% 30.10 in 1.0 mi Calm Calm - N/A   Mostly Cloudy
7:20 AM 39.2 °F - 37.4 °F 93% 30.10 in 2.5 mi Calm Calm - N/A   Mostly Cloudy
7:42 AM 39.2 °F - 37.4 °F 93% 30.11 in 1.5 mi Calm Calm - N/A   Overcast
7:53 AM 39.9 °F - 37.9 °F 93% 30.11 in 4.0 mi Calm Calm - N/A   Overcast
8:00 AM 41.0 °F - 39.2 °F 93% 30.11 in 2.5 mi Calm Calm - N/A   Overcast
8:10 AM 42.8 °F 41.1 °F 39.2 °F 87% 30.11 in 4.0 mi East 3.5 mph - N/A   Overcast
8:53 AM 45.0 °F 41.8 °F 39.0 °F 80% 30.13 in 6.0 mi East 5.8 mph - N/A   Haze
9:53 AM 46.9 °F - 39.9 °F 77% 30.14 in 5.0 mi ESE 6.9 mph - N/A   Haze
10:53 AM 48.0 °F - 39.9 °F 74% 30.13 in 6.0 mi ESE 8.1 mph - N/A   Haze
11:53 AM 50.0 °F - 39.0 °F 66% 30.10 in 8.0 mi SSE 10.4 mph - N/A   Overcast
12:53 PM 51.1 °F - 39.0 °F 63% 30.09 in 10.0 mi SSE 9.2 mph - N/A   Overcast
1:53 PM 53.1 °F - 39.0 °F 59% 30.06 in 10.0 mi SE 5.8 mph - N/A   Overcast
2:53 PM 52.0 °F - 37.9 °F 59% 30.06 in 10.0 mi South 9.2 mph - N/A   Overcast
3:53 PM 52.0 °F - 39.0 °F 61% 30.06 in 10.0 mi SSE 6.9 mph - N/A   Overcast
4:53 PM 52.0 °F - 39.0 °F 61% 30.05 in 10.0 mi SSE 5.8 mph - 0.00 in   Overcast
5:53 PM 52.0 °F - 37.9 °F 59% 30.04 in 10.0 mi SSE 9.2 mph - N/A   Overcast
6:53 PM 52.0 °F - 39.9 °F 63% 30.04 in 10.0 mi SSE 8.1 mph - N/A   Overcast
7:53 PM 52.0 °F - 41.0 °F 66% 30.04 in 10.0 mi SE 9.2 mph - N/A   Overcast
8:53 PM 52.0 °F - 42.1 °F 69% 30.04 in 8.0 mi SSE 11.5 mph - N/A   Overcast
9:53 PM 52.0 °F - 43.0 °F 71% 30.04 in 7.0 mi South 9.2 mph 17.3 mph N/A   Overcast
10:53 PM 50.0 °F - 45.0 °F 83% 30.04 in 3.0 mi SSE 6.9 mph - 0.01 in Rain Light Rain
11:53 PM 50.0 °F - 45.0 °F 83% 30.03 in 3.0 mi SSE 6.9 mph - 0.02 in Rain Light Rain